Theta_e
284 283 283 283 283 282 282 281 280 280 279 279 279 278 278 277 277 276 276 276 276 276 276 276 276 276 275 274 274 274 274 273 271 273 274 275 275 275 276 276 277 276 277
283 283 282 282 282 281 281 280 279 279 279 278 278 278 277 277 277 276 276 276 275 276 276 276 275 277 274 274 273 273 272 272 271 271 273 273 273 274 274 274 276 277 276
283 282 281 281 281 280 280 279 279 278 278 277 277 277 277 276 276 276 276 276 276 276 276 275 275 275 274 273 273 272 272 274 272 272 271 273 273 274 273 274 275 275 277
282 282 281 280 280 280 279 279 278 278 277 277 276 276 276 276 276 276 276 276 276 276 276 276 275 274 274 273 273 273 274 273 273 272 271 272 273 274 274 273 273 275 275
282 282 281 281 280 279 279 279 278 278 277 276 276 276 275 275 276 275 275 275 275 275 275 276 275 275 277 277 275 274 273 272 272 271 271 272 272 273 272 274 273 274 275
282 282 282 281 281 280 280 279 278 277 277 276 275 274 274 276 279 280 277 275 276 275 274 275 275 274 275 278 278 278 278 273 267 269 272 273 273 273 274 274 273 272 271
282 282 282 282 281 280 280 279 277 277 275 274 274 274 273 274 280 280 280 276 275 274 274 274 275 275 274 274 275 277 277 278 279 277 273 273 272 273 273 273 273 273 272
282 282 282 282 281 279 278 278 277 276 274 274 273 273 273 273 279 280 280 276 274 274 274 274 274 274 274 274 273 273 274 275 276 276 274 274 274 275 273 273 272 271 272
282 281 281 282 281 279 278 277 276 275 273 273 272 271 271 271 279 280 279 274 274 273 274 274 274 273 276 278 275 273 272 273 276 277 277 277 276 276 275 271 267 267 267
282 282 282 282 281 279 279 276 273 274 274 273 273 271 271 269 277 279 279 274 269 272 272 274 276 276 278 279 276 271 268 270 272 269 268 270 271 271 273 271 269 266 266
281 281 280 280 280 279 277 274 271 272 272 270 271 271 269 270 269 278 279 275 272 269 270 271 273 277 278 278 279 274 269 274 265 262 264 266 267 268 269 270 270 268 266
278 278 277 277 277 275 274 269 270 271 271 270 268 267 268 269 272 275 278 279 278 270 269 272 273 277 278 278 278 277 277 274 260 259 261 263 265 266 268 268 269 269 270
275 274 273 271 273 272 271 270 269 270 270 269 268 268 267 269 269 275 277 278 278 276 274 274 277 278 279 277 274 275 272 264 260 257 261 264 266 267 267 267 268 268 268
272 269 269 271 269 268 272 271 270 269 268 267 266 266 263 266 268 268 270 270 274 275 275 272 274 276 275 274 268 269 268 265 264 263 264 265 266 265 264 266 264 265 264
270 269 269 268 268 267 267 266 268 265 268 262 261 262 261 262 266 271 268 264 264 269 269 261 262 265 264 265 263 263 264 264 262 263 263 263 263 263 263 264 264 263 262
270 269 268 267 265 266 265 264 273 273 275 276 276 268 265 272 275 276 277 277 278 278 273 270 265 266 265 265 262 262 263 263 263 262 258 260 261 261 261 262 263 262 261
268 267 266 266 265 264 263 263 262 266 276 278 278 278 278 278 278 278 279 279 279 278 274 274 265 264 264 264 262 262 262 262 261 258 259 259 260 259 259 260 261 261 261
262 266 266 265 265 263 262 261 261 260 260 262 269 270 272 273 274 275 275 275 270 270 266 261 263 262 262 262 262 260 261 259 257 256 256 254 254 257 258 258 259 259 260
264 263 262 261 261 261 261 260 259 259 260 258 255 262 263 268 269 270 270 257 256 259 261 261 261 261 261 260 259 258 257 256 253 250 249 249 252 253 257 257 259 259 259
260 261 260 259 258 258 259 258 259 258 255 253 253 254 253 252 251 251 250 249 252 255 257 258 259 260 259 258 258 257 255 254 250 248 249 249 251 252 257 257 258 257 258
257 257 258 256 256 255 256 257 255 252 253 251 252 255 266 257 255 252 252 251 253 256 258 253 257 258 258 258 257 256 255 255 251 248 247 247 249 251 254 257 256 257 258
255 254 254 254 254 256 252 253 252 252 251 251 253 254 264 253 251 250 250 251 254 253 254 256 256 255 258 258 257 256 255 254 250 245 248 249 248 251 252 255 255 256 259
255 254 254 253 252 252 251 249 250 250 250 249 250 252 249 249 250 251 252 252 252 253 252 256 256 256 258 258 258 256 255 254 251 247 248 248 248 250 248 253 254 255 259
255 256 253 250 251 251 251 252 254 252 249 249 247 248 251 250 250 250 251 252 252 251 250 253 256 257 258 258 256 253 252 251 246 247 247 249 251 251 251 254 255 256 258
251 251 252 252 254 254 253 250 249 247 247 249 250 249 250 250 251 251 251 252 253 252 251 251 254 256 256 255 255 253 249 254 252 249 245 245 249 250 252 254 255 258 255
254 256 255 254 252 251 247 248 249 249 249 250 250 249 250 250 251 251 252 252 252 251 250 250 252 253 253 254 253 252 252 256 253 252 250 248 250 252 253 255 258 259 257
Wind_Speed
10 7 10 9 9 9 9 8 8 7 7 7 6 7 7 6 6 6 6 5 5 3 2 2 1 1 1 2 2 1 1 2 6 8 4 8 10 11 11 12 13 11 10
10 9 9 9 9 9 9 9 8 8 6 7 6 6 6 6 6 6 5 4 4 2 1 1 3 1 3 2 2 3 2 3 4 14 10 8 11 11 12 13 12 10 10
11 11 9 10 10 9 9 9 8 8 8 7 6 7 6 6 6 4 5 4 3 3 3 4 4 4 4 3 2 3 3 5 4 7 11 8 9 10 12 11 11 12 9
12 12 12 12 11 10 9 9 9 8 8 7 7 7 6 6 6 5 5 3 3 3 4 5 5 4 5 5 4 4 5 4 5 7 9 10 10 10 10 11 12 10 12
12 12 12 10 8 8 9 8 7 7 7 7 7 6 6 5 4 5 5 4 4 5 5 5 5 6 9 9 4 4 5 5 5 7 9 10 10 10 13 12 13 13 12
13 12 10 10 10 10 10 9 9 8 7 7 7 7 6 4 10 10 7 4 4 4 5 5 5 6 9 12 12 14 12 6 4 4 9 11 13 12 11 12 14 14 12
12 10 11 11 12 11 10 10 10 10 6 7 7 7 7 6 11 12 12 5 5 6 6 5 6 5 5 5 11 14 14 16 16 12 12 12 15 15 15 15 15 15 14
12 11 11 13 12 9 11 11 9 7 9 7 7 7 6 6 13 14 14 5 5 7 7 7 7 7 6 7 8 9 9 6 6 8 10 13 13 14 15 14 16 15 12
14 13 13 12 12 12 12 12 9 8 6 7 4 7 7 6 14 14 12 5 7 8 7 6 6 7 11 15 10 8 5 5 9 18 18 20 24 24 19 11 9 11 12
13 14 12 13 13 14 13 11 5 5 8 6 7 8 8 7 15 15 12 3 5 6 5 7 12 12 16 17 8 4 4 6 9 4 7 10 13 13 19 10 9 10 11
8 9 10 11 12 11 9 6 6 6 5 7 8 6 7 7 8 16 16 7 6 5 6 6 6 15 16 16 18 3 5 10 3 2 5 7 8 8 7 8 10 10 10
9 9 9 9 7 7 9 5 5 7 8 7 5 4 3 4 10 15 18 19 15 7 7 7 7 16 17 18 13 8 15 12 2 3 4 7 7 7 8 9 11 11 10
8 7 7 6 6 7 8 8 5 6 7 7 6 6 3 4 5 17 19 18 19 12 6 10 17 19 20 9 7 12 7 0 2 3 5 7 7 8 10 10 11 12 13
6 5 5 7 6 5 4 6 6 7 6 4 5 5 2 3 4 4 5 5 11 11 12 7 10 13 12 9 2 4 3 2 3 4 6 7 7 7 8 7 9 10 10
6 5 5 4 5 4 2 4 3 1 5 4 3 4 4 4 5 9 8 4 5 10 9 2 2 3 3 2 2 3 3 3 3 4 5 6 7 7 8 8 8 10 10
6 5 5 5 4 4 4 1 5 7 10 12 11 8 4 10 10 12 15 19 20 20 10 11 7 7 7 5 4 4 3 4 4 4 2 4 6 7 8 8 8 8 10
6 6 5 5 4 4 3 4 4 3 7 10 11 10 10 10 12 14 17 19 21 19 10 9 6 6 6 5 4 4 4 3 2 2 3 5 6 6 8 8 8 9 10
4 6 5 5 4 4 4 3 3 4 3 1 4 4 7 10 13 15 16 17 9 8 5 3 5 5 4 4 4 3 3 2 2 3 3 3 4 5 7 7 8 9 10
5 4 4 4 4 5 4 4 3 3 2 1 3 4 5 10 11 12 14 2 2 6 7 5 4 2 2 3 4 3 3 3 3 3 3 3 3 4 7 7 8 12 12
5 8 6 5 4 4 3 3 3 3 3 2 2 3 2 3 2 3 3 2 3 5 6 5 4 3 3 3 3 3 3 3 2 3 4 3 4 4 7 7 8 9 9
4 4 6 4 4 3 3 3 3 3 3 2 3 3 10 1 1 2 3 3 4 6 7 5 4 3 3 3 3 3 3 5 3 4 4 3 3 4 4 7 8 8 9
5 4 3 4 3 3 3 3 3 2 2 2 2 3 11 2 2 3 3 4 5 4 3 2 2 3 3 3 3 4 4 5 4 3 4 4 4 4 4 7 7 7 8
4 5 4 3 3 4 3 2 2 2 2 3 2 3 2 3 4 4 5 5 5 4 4 3 3 3 4 4 4 4 5 6 5 4 4 4 4 4 3 6 7 8 7
4 4 4 3 3 2 3 2 2 2 3 2 3 4 4 4 5 5 5 5 5 5 4 3 3 6 6 6 4 4 5 5 3 5 7 5 6 4 4 6 7 9 6
3 3 3 3 2 2 2 1 2 3 3 4 4 4 4 5 5 5 5 4 5 4 5 4 3 6 8 9 8 7 7 11 7 6 4 5 7 8 8 7 8 9 5
3 3 2 2 2 2 3 2 3 4 4 4 4 4 4 5 5 4 4 4 4 5 5 3 5 9 9 8 9 10 10 11 10 11 7 6 6 7 7 8 11 6 7
Wind_Direction
153 144 145 148 141 135 138 144 149 137 144 150 147 144 142 127 120 113 118 126 112 122 74 64 335 317 270 316 326 298 261 237 268 293 323 319 317 318 314 310 306 304 308
158 150 149 145 144 147 153 154 148 147 152 158 157 146 137 132 125 131 144 138 148 152 214 266 262 284 296 284 270 272 249 247 264 291 310 312 311 311 302 297 302 302 301
158 155 154 157 157 163 161 156 153 149 157 164 160 148 148 143 138 148 164 174 174 207 231 245 264 265 277 257 248 267 248 281 257 275 294 302 299 303 301 298 296 296 294
162 163 167 169 168 167 160 163 161 161 158 169 164 152 159 151 152 170 183 188 215 232 246 251 257 253 258 258 260 255 262 257 268 277 290 300 299 305 294 302 304 299 301
168 174 179 169 160 157 164 169 159 161 173 172 152 157 167 161 169 185 189 197 223 246 252 253 249 248 251 266 270 244 244 258 270 284 291 298 301 308 309 307 299 303 301
180 181 170 167 168 174 171 169 168 170 174 171 161 170 177 182 195 201 185 199 222 241 257 256 251 252 266 275 277 284 281 278 261 288 290 299 304 307 308 306 300 301 304
179 173 174 173 178 183 172 173 179 181 169 176 171 179 192 195 205 211 214 201 216 231 241 254 255 245 241 247 275 284 286 287 288 302 306 302 306 305 303 304 311 314 308
181 176 177 179 184 169 174 184 180 172 187 175 190 193 192 206 213 218 222 206 226 238 243 246 251 258 240 254 255 258 262 258 274 291 294 296 293 310 311 307 306 304 298
183 182 182 183 176 178 188 187 187 178 181 188 176 191 201 207 218 222 222 195 226 239 243 247 243 252 256 270 272 271 258 278 288 300 303 313 310 311 315 317 316 313 307
183 188 177 180 184 185 190 185 173 181 194 188 202 199 203 207 219 226 230 193 226 241 245 254 252 252 254 261 271 232 268 286 299 326 310 311 312 307 318 317 309 308 313
162 158 169 176 183 187 177 162 166 176 167 194 208 201 206 198 216 231 235 225 228 231 230 241 241 258 267 272 273 193 226 293 1 287 316 313 306 304 302 308 312 304 298
145 160 172 174 174 162 171 163 163 170 193 203 204 225 217 193 207 235 239 242 240 221 223 235 236 258 270 271 276 286 300 319 3 341 306 299 300 303 310 307 304 295 286
152 170 169 149 160 160 165 172 163 178 194 205 209 227 217 199 218 243 242 246 252 252 240 237 252 262 268 274 287 292 305 61 291 301 281 284 293 305 306 304 302 299 292
151 145 144 165 160 156 157 167 177 185 195 191 198 225 192 198 220 219 239 257 270 262 267 278 269 262 235 235 191 279 265 229 243 259 281 291 303 305 301 308 308 311 305
132 139 141 133 160 146 120 163 167 162 171 165 195 177 188 233 232 231 224 230 235 243 251 256 207 247 236 233 244 236 235 250 255 262 274 290 301 299 303 311 304 304 302
147 158 165 157 153 149 145 89 227 205 218 223 217 190 220 227 245 253 261 265 267 247 236 242 220 214 217 218 222 235 230 239 252 258 256 280 294 302 304 307 300 302 302
153 152 152 149 150 157 156 162 180 307 246 231 231 245 265 267 273 275 285 290 289 285 270 271 224 204 208 213 221 219 237 228 210 237 275 285 293 297 301 303 303 302 302
135 143 151 154 155 150 149 151 147 154 164 312 13 336 309 297 295 294 296 297 298 288 279 216 227 214 203 212 223 219 233 221 220 244 255 259 272 279 297 297 299 301 303
120 118 112 112 119 128 126 128 126 117 118 160 345 328 335 316 314 309 311 25 267 293 300 292 285 257 221 215 224 218 225 239 218 238 258 246 263 263 290 288 293 301 299
94 118 115 119 115 106 108 112 110 124 136 179 205 236 294 48 331 280 282 275 275 275 278 259 240 234 231 228 223 223 238 253 251 246 254 252 265 256 285 290 295 297 300
106 104 112 96 108 122 124 131 137 136 159 194 239 248 285 213 25 228 247 262 257 268 276 242 234 223 216 226 231 234 238 260 243 244 252 250 251 269 269 281 285 287 291
109 120 113 125 120 114 122 127 122 128 168 216 261 293 317 20 313 284 266 260 262 256 245 251 250 231 237 245 239 244 251 257 248 227 255 253 256 264 264 281 285 289 291
123 117 106 109 124 128 108 115 144 180 233 260 275 288 285 267 266 265 268 265 266 267 262 233 240 253 245 244 234 235 249 253 236 197 233 247 256 258 233 275 281 292 291
113 128 137 139 128 129 146 193 229 237 241 253 260 258 258 259 259 260 263 267 268 263 248 230 230 258 271 265 243 226 234 248 223 217 215 232 261 260 263 266 274 278 279
108 117 123 136 152 170 202 228 241 251 251 246 253 249 253 258 260 258 259 255 258 255 253 238 234 261 262 263 260 253 239 260 253 214 202 206 241 258 260 263 271 274 275
131 140 141 146 183 202 206 227 239 241 245 248 245 247 249 258 260 264 267 265 258 255 251 245 245 254 262 268 265 260 251 253 242 233 219 204 225 240 246 252 262 264 278